CAPE
205 552 593 830 761 833 457 173 72 225 419 696 741 533 609 912 732 1122 1451 1592 1532 1382 1274 943 936 1319 1523 1538 1453 1651 1876 1677 1677 1603 1556 1395 1570 1409 1297 1343 1095 1101 1421
251 503 813 775 840 807 701 137 203 86 190 257 772 826 623 283 758 1044 1597 1594 1014 1075 942 1083 1836 1599 1673 1869 1757 1580 1504 1610 1729 1499 764 1095 1530 1443 1445 1334 1308 954 1308
122 434 490 800 776 695 595 499 208 120 265 395 530 858 692 664 1502 1760 1579 1238 1820 1800 1764 1727 1688 1722 1557 1213 1292 1356 1444 1441 1360 1307 1364 968 540 1028 1511 1448 1413 1353 1345
185 329 411 540 743 704 544 383 606 318 120 317 737 492 691 1535 1646 1713 1544 1612 1669 1669 1707 1542 1495 1293 945 1182 1195 1268 1570 1037 882 904 876 1215 1064 1152 980 682 877 1120 1256
323 386 491 944 742 551 669 519 355 350 315 457 182 510 836 1677 1757 1901 1642 1597 1663 1582 1366 1303 1418 1326 1282 1306 1505 1527 1627 580 391 400 653 650 840 1230 1072 911 813 940 938
492 612 990 1242 1248 713 677 612 166 180 343 336 283 486 526 1142 1260 1778 1650 1610 1469 1411 1118 1194 1358 1317 1404 1500 1287 1205 684 196 54 68 137 95 70 323 602 907 958 899 995
532 819 1222 1111 1251 968 889 1046 932 820 993 862 1404 1176 1374 1383 1655 1554 1744 1708 1269 1016 1152 1383 1279 1287 1491 1474 1223 949 563 237 73 214 315 309 22 427 449 239 156 111 128
602 772 628 1121 1596 1206 1030 1296 1340 1368 1283 1198 1415 1793 1905 1623 1861 1739 1706 1353 806 945 974 1126 1082 1360 1748 1314 1165 951 596 92 36 149 152 151 773 927 1033 923 1068 1033 825
877 630 330 646 983 1319 1293 1414 1545 1705 1266 1780 1683 1955 1874 1625 1430 1744 1667 1315 1242 1208 1163 1155 1035 1128 1384 1614 1285 961 439 0 0 0 0 0 28 367 338 315 338 398 490
527 535 387 967 970 1141 1347 1503 1513 1298 1766 1726 2068 2105 1890 1680 1924 1890 1514 1662 1501 1325 1232 990 879 952 1036 1354 1451 1076 624 0 0 0 0 0 0 0 0 0 0 0 0
685 539 463 855 1156 1279 1345 1230 1363 1269 1556 1877 2045 1985 1747 1550 1523 1308 1528 1455 1317 1187 1038 880 930 947 927 849 1202 1104 610 0 0 0 0 0 0 0 0 0 0 0 0
164 313 466 672 805 1019 847 1239 1281 1264 1470 1556 1915 2131 1814 1655 1641 1192 1297 1563 1378 1111 803 643 575 495 754 1059 1231 1369 1162 74 0 0 0 0 0 0 0 0 0 0 0
107 352 524 614 793 754 818 1213 1142 1244 1554 1483 1831 1810 1568 1271 1341 1111 1178 1025 1041 533 426 398 744 935 1057 1132 1245 1354 1510 451 0 0 0 0 0 0 0 0 0 0 0
130 302 431 642 687 1026 914 845 1239 1105 1438 1271 1373 1355 1056 729 929 1099 985 1101 743 570 639 757 1106 1324 1349 1378 1462 1174 1465 773 2 0 2 0 0 0 0 0 0 0 0
48 194 335 680 709 977 760 923 1070 1128 1066 959 857 765 813 842 730 796 682 598 472 366 671 1015 1128 1282 1404 1555 1421 903 1235 1085 408 0 63 0 18 1 39 13 0 0 0
29 86 282 505 661 754 588 820 722 914 904 702 349 444 702 880 915 750 387 191 227 542 962 976 1068 1246 1163 1402 1253 913 1145 1012 688 248 121 158 74 214 102 206 262 147 79
17 50 142 308 386 485 576 786 547 464 193 196 224 542 756 934 1085 972 328 21 435 1038 1149 1385 1203 995 1450 1420 1338 931 777 938 812 566 299 360 319 247 451 346 360 423 409
0 12 90 76 149 317 429 612 290 168 319 555 523 735 717 908 1012 909 195 112 954 1199 1114 1122 954 1314 1844 1396 1290 1502 1214 910 801 705 510 524 558 556 647 692 605 481 476
0 0 35 104 102 198 295 240 234 384 548 596 710 629 673 808 933 910 697 883 1282 1303 1045 864 1062 2037 1569 1266 1396 1332 1484 1270 1247 817 666 730 768 674 863 903 640 695 744
0 0 0 103 181 156 274 219 214 383 462 570 555 616 781 752 878 989 1141 1161 1301 1084 1060 905 1915 1525 1149 1644 1261 669 1296 1611 1277 1158 1003 1011 1069 1099 1104 1251 1292 1215 883
0 0 0 26 156 260 233 163 223 194 404 488 639 700 748 806 928 1119 1150 1409 1217 827 849 1020 1663 1581 1368 1688 1423 1060 1898 1209 1430 1089 689 755 1073 1102 1275 1299 1364 1295 1245
0 0 0 28 97 145 234 190 130 113 354 470 652 696 665 787 919 1068 1256 1485 1469 1047 1089 1030 1423 1507 1221 1402 1388 1305 1414 1313 690 570 235 462 315 263 441 892 989 1101 1168
0 0 0 0 23 140 180 279 382 372 571 529 681 692 692 803 809 934 1302 1426 1533 1107 1159 1132 1658 1482 1237 1230 1361 1153 771 579 154 121 126 107 279 144 268 466 288 421 694
0 0 14 0 0 90 248 239 370 338 402 446 591 763 939 988 975 980 1194 1433 1674 1687 1314 1563 1638 1498 870 886 1122 937 764 473 188 247 279 173 145 71 59 71 83 589 930
0 0 0 24 9 71 231 375 544 587 665 771 714 830 964 948 1017 921 1080 1414 1704 2069 1822 1547 1826 1507 1281 974 1255 1119 552 432 170 296 226 65 50 61 40 87 369 1464 1667
0 0 0 24 20 102 251 355 536 614 737 864 828 803 723 573 648 845 872 1148 1475 1695 1973 1845 2010 1842 1636 1552 1489 1288 966 802 714 572 403 169 41 22 6 64 464 1070 1591
CIN
-21 -1 -4 -2 -1 0 -7 -19 -22 -11 -9 -1 -2 -3 -3 0 -2 -1 0 0 0 0 0 -11 -13 -1 0 0 0 0 0 0 0 0 0 0 0 0 0 0 -2 -1 0
-50 -10 -1 -1 -1 0 -5 -11 -7 -18 -11 -11 -4 0 -2 -34 -6 -3 0 0 0 0 -10 -2 0 0 0 0 0 0 -1 -1 0 0 -8 -1 0 0 0 0 -1 -1 0
-79 -19 -12 -4 -6 -6 -5 -5 -5 -10 -7 -7 -6 -1 -1 -10 0 0 0 -3 0 0 0 0 0 0 -3 -7 -4 0 0 0 0 -2 -1 -1 -4 -1 0 0 0 0 0
-52 -28 -20 -19 -10 -14 -16 -9 -2 -4 -14 -12 -2 -14 -6 -1 0 -1 0 0 0 -1 -1 -1 0 -9 -9 -5 -4 -2 0 -3 -8 -5 0 -1 -1 0 -1 -8 0 0 0
-38 -34 -30 -2 -9 -28 -14 -12 -10 -7 -8 -9 -20 -11 -6 0 0 0 -5 -2 -2 -6 -6 -5 -1 -8 -8 -8 -4 -2 0 -32 -63 -32 -3 -2 -1 0 0 0 0 0 -1
-13 -8 0 0 0 -21 -17 -19 -29 -26 -12 -13 -19 -19 -19 -2 -3 0 -3 -1 -7 -9 -13 -8 -1 -14 -14 -10 -9 -5 -33 -133 -179 -155 -110 -114 -81 -24 -1 0 0 -1 -1
-6 0 0 -2 0 -7 -12 -9 -8 -7 -4 -8 -4 -7 -3 -4 0 0 -2 -1 -12 -25 -20 -8 -22 -25 -15 -11 -12 -19 -80 -173 -213 -143 -88 -68 -153 -10 -6 -40 -62 -74 -68
-1 -1 -7 -2 0 -2 -4 -1 -3 -3 -6 -6 -6 -2 0 -1 -2 -2 -1 -3 -39 -29 -38 -31 -32 -23 -14 -19 -15 -39 -116 -299 -317 -229 -194 -149 -6 -2 0 0 0 0 -1
0 -2 -25 -6 0 0 -1 0 -1 0 -2 -1 -9 0 -2 -1 -2 -1 0 -5 -15 -33 -38 -35 -40 -39 -26 -14 -18 -61 -197 0 0 0 0 0 -57 -91 -89 -92 -75 -47 -24
0 -3 -26 -1 -2 0 0 0 0 -1 -1 -5 0 0 -2 -2 0 0 -2 0 -20 -37 -35 -52 -52 -48 -46 -32 -26 -69 -168 0 0 0 0 0 0 0 0 0 0 0 0
0 -2 -20 -6 0 0 0 0 -1 -2 -1 0 0 0 -3 0 0 -3 -8 -22 -41 -42 -54 -58 -57 -60 -74 -115 -67 -94 -196 0 0 0 0 0 0 0 0 0 0 0 0
-18 -10 -10 -4 -3 0 -6 0 0 0 0 0 0 0 0 0 -1 -10 -20 -25 -39 -54 -63 -82 -112 -152 -117 -64 -48 -64 -59 -430 0 0 0 0 0 0 0 0 0 0 0
-40 -3 -3 -2 -1 -2 -2 0 0 0 0 -1 0 0 0 -14 -16 -24 -23 -35 -39 -74 -73 -97 -70 -71 -83 -86 -75 -53 -56 -221 0 0 0 0 0 0 0 0 0 0 0
-50 -19 -4 0 -2 0 0 0 0 -7 0 -3 0 -5 -27 -47 -44 -37 -34 -38 -50 -65 -68 -70 -40 -57 -62 -67 -74 -97 -73 -159 -46 0 -45 0 0 0 0 0 0 0 0
-63 -37 -13 0 0 0 -11 -7 -2 -8 -10 -9 -25 -47 -50 -39 -53 -50 -58 -55 -68 -100 -70 -45 -54 -57 -64 -40 -55 -130 -90 -120 -239 0 -350 0 -163 -54 -439 -164 0 0 0
-70 -45 -12 -8 -3 -4 -20 -22 -28 -20 -9 -22 -70 -64 -56 -43 -49 -56 -76 -110 -112 -74 -58 -66 -69 -57 -71 -41 -61 -114 -99 -120 -181 -289 -300 -281 -402 -328 -381 -326 -300 -347 -369
-94 -80 -45 -19 -20 -21 -24 -16 -41 -56 -69 -70 -72 -60 -48 -46 -47 -59 -86 -212 -75 -56 -60 -57 -50 -53 -33 -42 -52 -111 -134 -131 -145 -213 -271 -239 -242 -322 -287 -303 -302 -286 -273
0 -53 -60 -48 -45 -31 -24 -15 -52 -83 -60 -32 -36 -32 -49 -49 -56 -66 -103 -128 -48 -47 -51 -46 -47 -25 -20 -32 -47 -44 -82 -133 -153 -192 -238 -232 -221 -215 -230 -267 -274 -293 -289
0 0 -78 -58 -57 -46 -28 -33 -39 -33 -27 -30 -24 -37 -46 -47 -53 -61 -49 -39 -43 -31 -41 -49 -34 -34 -22 -35 -28 -45 -58 -93 -112 -155 -199 -221 -223 -239 -195 -212 -292 -280 -262
0 0 0 -70 -46 -49 -29 -33 -38 -21 -24 -25 -32 -33 -34 -38 -49 -50 -33 -35 -33 -34 -36 -38 -30 -37 -47 -35 -45 -109 -69 -65 -113 -134 -163 -161 -156 -192 -180 -182 -174 -168 -236
0 0 0 -91 -61 -37 -30 -57 -55 -81 -36 -34 -25 -37 -36 -38 -42 -38 -27 -21 -24 -30 -37 -41 -29 -28 -16 -32 -37 -50 -23 -81 -84 -116 -171 -155 -131 -145 -139 -160 -176 -145 -131
0 0 0 -112 -71 -60 -42 -63 -83 -101 -38 -28 -22 -30 -38 -39 -41 -37 -26 -15 -20 -25 -37 -35 -38 -22 -26 -49 -32 -53 -16 -27 -95 -133 -224 -169 -204 -231 -180 -153 -165 -166 -161
0 0 0 0 -80 -76 -67 -54 -44 -37 -22 -26 -19 -26 -39 -37 -44 -41 -23 -21 -27 -37 -21 -34 -31 -31 -14 -41 -63 -57 -57 -68 -189 -191 -216 -272 -215 -282 -220 -178 -216 -211 -193
0 0 -138 0 0 -100 -76 -63 -53 -33 -28 -45 -32 -22 -22 -33 -33 -32 -25 -26 -30 -26 -33 -24 -31 -31 -61 -36 -51 -90 -116 -153 -171 -117 -145 -234 -279 -291 -248 -241 -307 -206 -194
0 0 0 -160 -167 -99 -87 -66 -50 -26 -20 -16 -18 -20 -14 -27 -30 -29 -30 -22 -24 -24 -27 -29 -28 -32 -35 -41 -30 -40 -107 -142 -241 -156 -154 -183 -220 -296 -236 -302 -199 -91 -93
0 0 0 -190 -202 -129 -90 -84 -61 -47 -30 -20 -19 -23 -33 -43 -38 -35 -35 -30 -31 -29 -27 -25 -27 -27 -28 -26 -26 -35 -36 -42 -57 -98 -137 -186 -270 -246 -190 -254 -147 -95 -66
Wind_Speed
22 19 17 16 15 13 14 14 22 28 29 31 33 31 16 12 15 16 13 10 14 12 12 18 20 20 18 16 15 16 17 25 30 29 28 27 27 27 26 26 24 26 26
28 24 22 20 18 15 13 11 11 11 24 30 33 30 8 12 13 13 12 11 15 17 18 22 20 14 14 14 15 12 10 1 23 26 25 26 26 27 21 24 13 26 26
28 24 23 20 20 17 15 14 12 1 10 12 8 5 11 9 9 14 12 19 23 21 18 17 16 17 19 19 16 21 19 21 18 8 15 18 24 19 18 23 22 23 23
26 24 23 23 22 20 17 16 7 4 8 9 4 12 12 9 17 17 21 20 22 19 17 15 16 15 14 15 22 27 13 14 13 14 15 15 19 19 20 19 19 20 20
29 26 24 24 23 23 21 20 16 10 7 4 5 5 7 15 20 20 20 18 16 14 13 14 13 12 5 7 3 18 15 15 16 17 17 16 17 19 19 17 19 19 17
26 24 26 24 23 24 24 23 15 17 19 13 27 21 24 21 16 14 13 14 14 12 11 11 10 6 9 17 13 15 15 15 16 17 17 19 17 17 16 17 17 17 18
26 25 26 25 23 25 26 26 21 22 24 24 26 24 23 18 13 12 14 12 12 12 13 11 6 10 15 18 15 14 15 15 16 17 18 18 18 17 18 18 18 17 18
28 26 25 24 24 25 26 24 23 21 23 23 24 23 20 16 14 14 11 12 13 15 13 12 12 12 10 18 17 15 14 15 16 18 18 18 16 18 19 19 19 19 19
27 27 26 25 25 25 25 25 25 25 23 23 22 21 18 17 15 12 13 14 15 14 15 17 12 10 12 18 16 15 15 16 17 18 19 20 18 18 19 19 19 19 19
28 27 26 26 26 26 26 25 25 24 23 23 22 21 19 16 14 13 15 14 11 16 16 14 13 13 12 13 17 17 16 17 18 20 21 21 21 22 22 22 23 23 23
28 27 27 27 27 26 25 26 25 24 24 23 21 20 18 17 16 15 12 12 13 15 15 15 13 12 12 13 15 16 16 17 19 20 20 21 22 22 24 24 25 25 25
29 28 27 27 28 26 26 25 25 24 24 23 20 19 18 16 16 15 14 14 16 16 16 15 13 12 12 11 13 16 15 19 20 21 21 22 23 23 23 24 25 24 25
30 28 28 28 28 27 26 26 26 25 25 23 21 19 17 18 17 17 17 17 18 17 17 15 13 11 10 11 13 15 17 20 21 22 22 22 22 22 22 22 21 21 22
30 30 29 29 29 28 27 27 26 26 25 24 22 20 20 20 20 19 19 19 20 19 17 15 14 11 11 11 13 16 18 20 20 20 20 20 20 20 19 19 19 19 19
30 30 30 30 29 28 28 27 27 26 26 24 23 21 21 21 21 21 20 19 20 19 18 16 14 13 13 12 12 17 20 20 20 19 18 18 17 17 16 16 16 16 16
30 30 30 30 30 29 29 29 28 26 25 25 24 23 23 22 23 23 21 20 20 19 18 17 16 15 14 13 13 16 19 19 19 18 17 16 16 15 14 14 14 14 14
29 30 31 31 30 31 30 29 28 27 26 25 25 24 24 24 24 23 21 20 20 19 18 17 17 16 15 15 15 16 17 17 17 17 16 15 15 14 13 12 12 11 11
30 31 30 30 31 31 30 30 29 27 27 27 27 26 26 25 25 24 21 21 20 19 19 18 16 16 16 16 15 15 15 15 15 15 14 13 13 12 12 11 10 10 9
29 31 31 31 31 32 30 29 29 28 28 29 28 27 27 27 26 25 22 21 21 21 20 18 17 17 16 15 15 14 15 15 14 14 13 12 11 10 10 10 9 8 7
28 30 32 31 31 32 30 29 28 27 28 29 30 29 28 28 28 26 23 22 22 22 22 19 18 17 17 16 15 15 15 15 14 13 11 11 11 10 10 9 10 9 8
28 30 32 33 33 32 32 31 30 31 30 30 30 31 30 29 29 27 24 23 23 23 22 20 19 19 18 17 16 16 16 15 14 13 12 12 12 12 11 10 10 10 10
28 30 32 34 34 34 32 32 29 31 30 30 31 32 31 31 30 27 26 24 24 24 23 21 20 20 20 18 18 18 15 13 13 12 12 12 12 12 11 10 10 9 9
31 31 32 33 34 35 34 31 28 26 26 29 29 31 32 32 30 28 27 26 25 25 24 23 22 21 21 20 19 18 15 14 10 11 12 12 13 12 13 11 11 11 9
33 31 31 33 34 36 36 34 33 30 29 29 30 29 29 31 31 29 28 27 27 24 24 23 22 23 22 23 20 18 18 17 7 7 12 14 15 13 15 15 13 14 13
29 32 32 30 34 36 36 38 33 31 27 24 26 28 28 23 27 31 30 28 22 23 22 24 23 23 23 22 21 20 19 19 17 11 8 10 21 18 17 20 16 17 20
23 23 25 22 27 32 37 38 39 31 27 23 20 21 22 20 16 5 4 13 19 20 22 24 24 24 24 23 23 22 23 23 24 18 1 4 10 18 20 17 17 15 17
Wind_Direction
173 175 177 172 167 169 171 180 166 150 141 135 125 109 64 165 157 153 151 144 148 148 146 143 140 138 139 141 142 140 136 117 82 70 61 61 63 65 64 73 103 67 71
157 164 167 168 166 169 170 182 191 195 166 147 121 109 164 167 160 157 155 152 150 148 145 141 142 147 145 144 141 144 149 213 38 51 49 59 52 74 119 55 152 82 75
158 168 165 172 167 167 166 168 179 350 59 82 178 69 180 170 165 162 159 152 143 145 147 149 149 145 137 133 137 118 24 28 24 351 137 131 108 129 108 108 116 109 108
168 169 165 163 165 164 163 159 183 47 84 152 168 66 172 169 162 158 153 151 146 148 151 154 150 147 146 143 115 85 21 136 144 145 139 138 128 128 125 126 127 125 122
160 164 165 161 161 157 154 151 164 162 144 120 77 167 175 168 160 155 153 155 160 160 158 154 155 153 171 351 330 132 141 140 138 136 135 136 134 125 126 133 127 129 132
173 172 159 161 163 156 153 146 175 167 166 168 145 166 159 161 167 167 170 167 170 166 167 159 159 171 156 133 141 135 138 141 139 136 134 128 130 130 134 132 132 133 129
176 172 163 161 167 158 149 149 171 166 161 159 155 158 156 166 175 177 175 179 180 174 165 165 173 150 141 135 137 135 135 137 137 135 132 129 127 128 127 128 129 131 128
170 173 169 169 165 161 155 168 173 174 168 166 161 161 165 174 179 180 188 185 177 168 170 164 151 147 146 135 133 134 134 136 134 131 129 128 128 124 123 123 122 122 121
169 165 166 167 170 167 170 171 176 172 171 169 169 169 175 177 181 189 184 177 173 175 166 153 157 153 145 138 138 135 132 131 131 129 127 125 126 123 121 120 120 119 117
165 166 166 168 171 172 174 183 182 181 177 175 177 175 178 185 187 186 179 179 184 170 167 167 161 154 150 147 141 136 131 130 129 125 123 121 119 116 115 114 111 109 108
172 171 170 165 171 179 182 183 186 184 180 185 187 186 189 191 189 187 193 188 186 180 172 168 168 165 162 153 146 140 135 131 128 125 123 120 119 115 112 109 105 104 102
174 180 177 173 173 185 187 189 189 188 192 194 197 196 200 201 198 195 196 194 185 181 176 177 178 176 172 170 163 147 143 133 127 122 121 119 116 113 111 108 104 103 101
173 186 186 181 181 184 188 189 188 187 190 194 201 204 213 201 202 198 195 191 185 184 177 180 182 185 183 176 167 157 146 135 128 122 120 119 117 114 111 110 110 108 105
168 176 178 181 183 190 192 192 192 190 193 197 204 208 207 202 198 197 192 188 183 184 181 181 179 195 189 179 169 157 147 137 131 128 125 124 121 120 118 115 112 111 110
170 175 177 176 180 190 195 193 192 191 196 203 205 210 208 203 197 194 192 190 188 191 186 186 191 190 182 177 175 154 139 136 135 134 133 130 131 128 125 123 119 116 112
171 180 181 181 183 191 196 193 191 198 203 204 206 207 208 203 196 191 193 193 192 197 199 193 191 187 185 185 177 158 142 137 137 137 135 136 135 134 131 127 123 119 114
170 174 187 186 189 191 194 198 200 204 210 207 208 208 208 204 199 196 200 201 200 204 205 203 191 190 192 181 170 165 151 143 142 141 137 134 132 132 134 129 125 122 118
171 176 180 188 188 188 194 199 204 211 213 211 207 206 206 206 206 202 205 208 213 215 207 208 206 198 196 185 184 175 161 149 145 144 142 138 131 130 124 128 126 123 121
163 172 181 184 179 188 195 199 204 214 214 210 208 207 204 205 204 204 213 215 222 218 212 213 212 209 203 205 207 192 171 158 153 148 144 144 140 133 124 116 120 126 127
164 172 182 190 191 188 196 202 210 214 212 211 208 205 204 201 199 204 218 223 225 221 217 221 226 222 216 223 224 200 172 167 164 151 147 140 133 127 121 115 102 99 109
170 174 182 188 194 198 197 204 210 210 211 212 208 202 201 199 195 198 220 227 227 223 226 231 235 228 226 241 226 217 177 177 154 151 142 125 108 98 96 96 88 79 79
174 175 179 188 189 195 201 205 215 212 215 213 210 204 201 199 198 197 208 230 232 232 233 238 242 239 241 258 244 217 167 134 108 122 106 88 80 71 74 68 64 61 60
183 180 180 182 188 192 199 211 222 225 226 219 218 214 206 199 196 193 200 218 238 236 244 247 250 250 252 263 278 259 171 165 179 68 55 52 47 51 46 44 37 35 37
188 184 182 183 185 195 204 216 218 225 226 226 225 226 225 217 207 194 200 204 220 248 252 262 264 262 265 268 287 301 312 326 116 131 26 22 20 25 21 19 24 23 27
184 186 186 181 186 190 189 213 225 230 237 243 240 237 239 252 245 213 212 233 261 263 269 267 270 274 277 281 290 300 310 319 334 360 211 7 353 2 8 6 15 23 20
185 184 182 179 179 182 190 195 219 237 242 248 251 252 254 260 267 258 199 283 280 280 278 275 276 275 279 286 291 296 299 307 310 330 313 318 351 356 355 3 7 10 10